Wind_Speed
15 14 14 14 14 13 12 11 9 6 4 3 4 4 5 6 7 7 7 7 7 7 8 8 8 8 8 8 7 8 8 9 9 9 10 10 11 11 11 12 12 12 13 13 13 12 12 11 10
16 16 16 15 15 15 14 12 11 8 6 5 6 6 7 8 8 9 9 8 8 8 9 9 9 9 9 9 9 9 9 10 10 11 11 12 12 13 13 13 13 14 14 14 14 13 13 12 11
18 17 17 16 16 16 16 13 12 10 8 8 7 7 8 9 10 10 9 9 9 9 10 10 10 11 10 10 10 10 10 11 12 12 13 13 14 15 15 15 15 15 15 15 15 14 13 13 12
19 19 19 18 17 18 17 14 12 10 9 9 8 8 9 11 11 11 10 10 10 11 11 11 11 11 11 11 11 11 12 12 13 14 14 15 16 16 16 17 17 17 17 17 16 15 14 14 14
21 20 20 19 19 19 18 16 14 13 12 10 9 9 11 12 12 12 11 11 12 13 13 12 12 12 12 12 12 12 13 14 15 15 16 17 17 17 18 18 18 18 18 18 18 17 16 16 15
22 21 21 21 21 20 19 18 16 14 12 11 10 11 12 12 12 12 12 13 13 14 14 14 13 12 12 13 13 13 13 14 15 16 17 18 19 19 19 19 19 19 20 20 19 19 19 18 18
23 22 23 23 23 22 21 19 17 15 13 12 12 12 12 13 12 12 13 14 14 14 15 15 14 13 13 14 14 14 14 15 16 17 18 18 19 19 19 19 19 20 21 21 21 22 21 20 20
24 24 24 24 24 24 22 20 18 17 15 13 12 13 13 13 13 13 14 15 15 15 15 15 15 15 15 15 15 15 16 16 17 18 18 19 19 20 20 20 20 21 21 22 22 22 22 22 21
25 25 26 26 26 25 23 21 19 17 15 13 12 13 13 14 14 14 15 15 15 15 15 15 16 16 16 16 16 16 17 17 18 19 19 20 20 20 21 21 21 21 21 23 24 24 23 23 23
25 27 28 28 27 27 24 22 20 17 15 14 13 14 14 14 14 15 15 15 15 16 16 16 17 17 17 17 17 17 18 18 19 20 20 21 20 20 21 21 22 23 23 23 24 25 25 24 23
26 28 29 29 28 27 25 23 21 18 16 15 15 15 16 16 16 16 15 16 16 16 16 16 17 18 18 18 19 18 19 19 19 20 21 21 21 22 22 22 23 24 24 24 25 26 26 25 25
27 28 29 30 30 29 27 24 22 19 17 16 16 16 15 16 16 16 16 17 17 17 17 17 19 19 19 19 19 19 19 20 20 21 21 22 22 23 24 23 24 24 25 25 25 26 27 27 26
27 28 29 30 30 29 28 26 24 22 20 17 17 17 17 17 18 18 17 17 17 17 18 19 19 19 20 20 20 20 20 20 21 22 22 23 24 24 25 25 25 25 25 26 26 27 27 27 26
27 28 29 29 29 29 28 26 24 22 20 18 18 18 18 18 17 17 17 17 17 18 18 19 19 20 20 20 20 21 21 21 22 22 22 23 24 25 26 26 26 26 26 26 27 27 27 27 27
27 28 29 28 28 28 27 26 24 22 20 19 18 18 17 16 16 17 17 17 18 18 18 19 20 20 21 21 21 21 22 22 22 23 24 24 25 26 26 26 27 27 27 26 26 26 27 27 26
26 27 28 27 26 27 25 24 23 21 19 19 18 18 17 17 16 17 17 18 18 18 19 19 20 21 21 21 21 22 22 23 24 24 25 26 26 27 27 28 28 28 28 27 26 26 26 27 26
26 27 27 26 25 26 25 23 22 20 19 18 17 17 17 17 17 18 18 19 19 20 20 21 21 22 22 21 22 23 23 23 24 25 26 27 27 28 28 29 28 28 28 28 27 27 26 25 26
25 25 26 25 24 24 24 22 20 18 17 16 16 17 17 17 17 18 19 20 21 21 21 22 21 22 22 23 23 23 24 25 26 27 27 28 28 28 28 28 28 29 28 28 28 27 27 26 26
24 25 25 25 24 23 22 21 20 19 18 17 17 17 17 17 18 19 20 21 21 22 23 23 23 23 23 24 25 25 26 27 28 28 28 29 28 28 28 29 29 29 29 28 28 27 27 27 27
23 24 23 23 23 23 22 22 21 20 18 18 17 17 17 18 19 20 21 23 23 23 23 23 24 25 25 25 26 27 28 28 29 29 29 29 29 29 28 28 29 29 29 29 28 28 27 27 27
22 22 22 23 23 24 23 22 20 17 17 17 17 17 18 20 21 22 23 23 23 24 24 24 25 26 26 27 28 28 28 29 29 29 29 29 28 27 27 27 27 27 28 28 28 29 28 27 27
21 20 20 22 23 23 23 21 18 17 17 16 17 18 19 21 21 22 24 25 25 25 25 25 26 26 27 28 28 29 29 29 29 29 29 28 28 27 26 25 26 27 27 27 28 28 28 28 28
20 20 21 21 23 23 22 21 19 18 18 17 17 18 20 22 23 24 24 24 25 26 26 27 27 27 27 28 28 28 29 28 28 29 28 28 27 27 26 26 26 26 26 26 26 26 26 27 27
21 22 22 22 22 22 21 21 20 18 18 17 17 19 20 22 23 24 25 25 25 26 27 27 27 26 27 28 28 28 28 28 28 28 27 27 26 25 25 26 26 25 26 26 25 25 25 26 25
21 22 22 23 23 22 21 21 20 18 18 18 19 20 21 22 23 24 25 24 24 25 26 25 26 26 27 28 28 28 27 27 27 27 27 26 25 25 25 24 24 24 25 25 25 25 25 25 25
19 20 22 23 23 22 21 21 20 19 20 20 21 22 22 23 24 25 24 23 24 24 25 25 25 26 27 27 27 27 26 26 26 26 26 25 24 24 24 24 24 24 24 24 24 24 24 24 24
18 19 20 22 22 22 21 21 20 19 20 21 22 22 23 24 24 24 24 23 23 23 24 23 24 25 26 26 25 25 25 25 25 24 24 24 24 23 23 23 23 23 23 23 23 23 23 23 23
18 19 20 21 22 22 21 20 19 19 20 21 22 22 23 23 24 23 23 22 21 22 22 23 24 25 26 25 24 24 24 24 24 24 24 24 23 23 23 23 23 23 23 23 23 22 22 22 23
19 20 21 21 22 22 22 20 19 20 20 21 22 22 21 22 22 22 22 21 21 21 21 22 23 23 24 24 24 24 24 23 23 23 23 23 23 23 23 23 23 23 23 23 23 23 23 23 22
19 19 20 21 21 22 22 21 20 21 21 21 22 21 22 22 21 20 20 20 20 19 20 21 22 22 22 22 22 22 22 22 22 22 22 21 22 22 22 22 22 21 21 21 21 22 22 21 20
Wind_Direction
229 229 229 231 234 238 240 245 246 250 251 271 306 324 340 341 339 330 318 307 307 312 312 307 307 308 309 309 308 308 308 309 308 307 307 306 305 305 305 304 305 305 306 307 307 307 307 305 305
228 228 229 231 233 237 238 243 248 254 251 263 289 310 329 330 327 322 315 305 303 305 305 303 303 306 304 301 300 300 301 302 301 299 299 300 301 300 299 298 299 299 301 303 304 302 302 300 298
228 227 227 230 232 236 240 242 246 252 260 269 283 297 313 320 320 317 313 304 301 301 300 299 300 301 300 298 298 298 298 298 297 295 293 294 295 295 295 294 295 294 295 296 299 298 298 296 293
228 227 227 228 230 235 238 240 242 249 255 267 281 297 310 316 316 313 309 302 300 298 297 297 298 296 297 298 297 295 294 294 292 290 290 291 293 293 291 292 292 291 292 292 293 293 293 292 291
227 227 227 228 230 234 236 237 238 242 249 264 280 298 308 310 311 309 302 298 298 297 296 294 294 295 295 295 296 295 293 291 290 289 288 289 291 291 290 289 288 288 288 289 288 289 289 288 288
226 225 226 226 229 234 235 235 238 241 251 266 280 288 295 299 305 307 301 296 294 295 293 291 290 293 295 295 295 294 293 291 290 291 290 289 290 290 290 289 287 286 286 285 285 284 284 284 285
223 222 222 224 228 232 234 236 240 242 250 265 276 285 291 294 300 301 298 294 292 292 290 290 292 293 295 296 295 293 292 292 290 291 291 291 291 289 287 287 286 285 284 283 283 281 281 281 282
221 220 220 222 226 232 235 237 239 242 251 265 275 284 291 296 296 296 296 296 293 293 290 290 292 294 295 295 295 294 292 292 292 292 291 290 290 289 287 285 284 284 284 283 282 281 280 280 281
218 217 219 220 224 230 235 237 242 247 255 265 275 284 289 290 291 293 295 294 292 291 293 294 294 295 296 295 295 294 292 291 292 293 292 290 289 289 287 285 284 282 283 283 282 280 277 279 279
216 215 216 220 224 230 235 238 243 249 258 266 272 280 287 288 289 290 292 292 291 292 292 291 293 295 296 297 296 294 291 290 290 291 290 290 288 287 286 284 284 283 283 282 280 281 278 277 277
215 215 216 220 225 230 234 239 244 249 256 263 271 279 285 287 288 288 287 287 288 291 293 293 294 294 296 295 293 292 291 289 289 289 288 288 286 285 285 283 283 284 283 282 279 278 277 275 275
214 214 216 220 225 230 234 238 245 249 255 262 267 275 281 282 283 284 284 283 286 289 292 290 290 289 291 290 289 290 290 289 288 288 288 288 286 285 285 283 284 284 282 281 280 278 277 273 272
213 212 215 221 225 230 235 239 245 249 256 261 266 273 276 276 280 282 282 282 283 285 288 289 289 289 291 291 288 288 290 291 292 291 289 288 287 286 285 284 284 283 282 281 279 277 277 273 269
213 213 217 222 227 231 235 240 245 251 255 260 267 271 274 273 277 280 279 280 282 284 285 287 289 290 290 289 288 289 290 292 291 291 292 289 287 286 284 283 283 283 282 282 279 275 275 273 269
214 215 218 223 228 232 237 242 248 253 257 262 265 268 272 275 276 277 279 281 283 284 286 289 290 290 290 287 287 288 289 290 292 292 291 290 288 285 284 283 282 282 282 281 279 276 276 273 268
214 216 219 223 229 233 238 243 249 253 258 261 264 268 274 279 278 279 281 284 286 286 286 288 289 289 289 287 288 289 289 291 292 292 291 291 289 288 283 282 282 280 281 280 278 277 275 271 266
214 216 220 224 229 235 239 244 248 252 259 263 266 270 276 280 278 280 282 285 286 285 285 288 289 290 289 289 289 289 290 292 294 294 292 291 289 287 284 282 280 278 277 277 276 275 272 271 267
215 218 221 227 232 237 241 246 247 252 258 263 269 274 278 279 283 286 287 289 287 285 287 289 290 290 289 290 291 290 293 294 294 293 291 291 289 286 284 282 280 277 275 274 274 274 270 269 267
217 220 224 230 236 240 244 247 248 252 258 263 270 276 279 281 286 288 289 292 288 289 290 289 289 290 290 291 293 292 294 294 293 292 291 290 288 286 285 283 280 277 275 273 272 271 270 267 266
218 223 228 232 238 244 247 250 252 255 261 265 270 276 279 284 289 289 290 293 292 290 290 290 290 290 292 293 294 294 295 296 293 292 292 290 289 287 285 282 279 276 274 272 270 269 269 267 266
219 224 228 233 240 247 249 251 252 254 261 267 272 276 281 286 290 292 294 294 293 293 293 292 291 291 291 293 293 294 295 296 294 292 291 291 290 288 287 284 279 277 274 272 269 268 266 266 266
222 226 231 237 244 248 250 250 249 254 263 270 274 279 283 287 290 292 293 293 293 292 293 292 291 291 291 293 294 295 295 296 295 295 294 292 291 289 286 285 280 276 274 273 271 269 266 266 265
222 226 232 238 244 249 253 257 256 260 267 274 279 285 286 287 287 290 291 292 293 292 292 290 291 290 290 291 294 296 295 296 295 294 294 293 291 288 286 285 282 278 275 274 273 270 268 266 264
224 229 236 241 246 251 255 262 264 268 273 278 284 289 291 290 288 291 292 293 293 292 293 291 294 293 293 293 295 296 296 296 296 296 296 295 292 289 288 287 284 279 276 274 273 272 268 265 264
231 235 240 243 248 253 258 265 271 275 276 281 284 287 289 289 288 291 292 292 291 292 294 293 295 295 295 297 297 297 296 297 296 295 295 293 291 290 289 287 284 280 276 273 272 271 269 267 266
236 240 245 249 253 258 261 266 274 278 280 284 285 286 289 290 289 290 290 290 291 293 294 295 295 296 296 297 299 299 300 299 298 297 295 293 291 291 290 287 283 281 278 275 271 269 268 268 268
242 244 249 253 258 266 270 272 274 278 281 284 286 288 292 293 292 290 289 291 292 294 294 294 295 298 299 299 301 302 303 303 301 299 297 296 295 294 293 289 285 283 280 276 273 270 267 267 267
247 250 254 258 264 270 274 276 278 282 283 286 289 292 294 296 295 293 291 292 294 296 297 298 298 298 301 302 304 304 303 302 301 300 299 298 295 295 294 290 286 284 282 278 274 272 270 268 267
249 253 256 261 266 273 277 279 283 285 288 290 293 295 297 300 300 297 294 296 295 296 297 298 300 301 303 304 303 303 304 302 302 301 299 298 295 294 292 290 289 286 282 278 275 272 270 269 267
252 256 257 260 265 272 276 281 282 286 288 290 292 296 299 301 302 300 299 298 297 297 298 300 302 303 305 306 306 306 305 305 305 303 302 299 296 295 295 293 290 287 285 281 276 272 271 269 267
Height
5892 5893 5894 5896 5897 5898 5898 5900 5901 5902 5903 5904 5904 5905 5905 5906 5907 5909 5907 5905 5905 5905 5904 5904 5903 5903 5902 5901 5901 5901 5901 5901 5901 5901 5901 5901 5901 5901 5901 5900 5900 5900 5899 5899 5899 5898 5898 5897 5897
5889 5891 5893 5895 5895 5896 5897 5898 5900 5901 5902 5903 5903 5903 5903 5904 5904 5905 5904 5904 5903 5903 5903 5903 5902 5901 5901 5900 5900 5899 5899 5899 5899 5899 5899 5899 5899 5899 5898 5898 5898 5898 5897 5897 5897 5896 5896 5896 5896
5887 5889 5892 5893 5893 5894 5896 5898 5899 5900 5901 5902 5902 5902 5902 5902 5903 5903 5903 5902 5902 5902 5901 5901 5901 5900 5900 5899 5898 5898 5898 5897 5897 5897 5896 5896 5896 5896 5896 5896 5895 5895 5895 5895 5894 5894 5894 5894 5894
5884 5887 5889 5891 5891 5892 5894 5896 5897 5898 5900 5900 5900 5901 5901 5901 5901 5901 5901 5901 5901 5901 5900 5900 5899 5899 5898 5897 5897 5896 5896 5895 5895 5895 5894 5894 5894 5893 5893 5893 5892 5892 5892 5892 5892 5892 5892 5892 5892
5881 5884 5886 5887 5888 5890 5892 5894 5896 5897 5898 5899 5899 5899 5899 5900 5900 5900 5900 5900 5900 5899 5899 5898 5897 5897 5896 5896 5895 5894 5894 5893 5893 5892 5892 5891 5891 5891 5890 5890 5889 5889 5889 5889 5889 5889 5889 5889 5889
5878 5881 5883 5884 5886 5887 5890 5892 5894 5896 5897 5897 5898 5898 5898 5898 5898 5898 5898 5898 5898 5898 5897 5896 5895 5895 5894 5894 5893 5892 5892 5891 5891 5890 5889 5889 5888 5888 5887 5887 5886 5886 5886 5886 5886 5885 5885 5886 5886
5875 5878 5880 5882 5883 5885 5888 5890 5892 5894 5895 5895 5896 5896 5896 5896 5896 5897 5896 5896 5896 5895 5894 5894 5893 5893 5892 5891 5890 5890 5889 5889 5888 5887 5887 5886 5885 5885 5884 5884 5883 5883 5882 5882 5882 5882 5882 5882 5882
5871 5875 5876 5878 5880 5883 5885 5887 5890 5891 5893 5893 5894 5894 5895 5895 5894 5894 5894 5894 5893 5893 5892 5892 5891 5890 5889 5888 5888 5887 5886 5886 5885 5884 5884 5883 5882 5882 5881 5880 5880 5879 5879 5879 5878 5878 5878 5878 5879
5868 5872 5873 5875 5877 5880 5882 5885 5887 5889 5890 5891 5891 5892 5893 5893 5893 5892 5892 5891 5891 5890 5889 5889 5888 5888 5887 5886 5885 5884 5883 5883 5882 5881 5880 5880 5879 5878 5878 5877 5876 5876 5875 5875 5874 5874 5874 5874 5874
5864 5867 5869 5872 5874 5877 5879 5882 5884 5886 5887 5888 5889 5889 5890 5890 5890 5890 5889 5889 5888 5888 5887 5886 5886 5885 5884 5883 5882 5881 5880 5879 5878 5877 5877 5876 5875 5874 5874 5873 5872 5872 5871 5871 5870 5870 5870 5870 5870
5860 5863 5866 5868 5871 5874 5876 5879 5881 5883 5885 5886 5887 5887 5887 5888 5888 5887 5887 5886 5886 5885 5884 5883 5883 5882 5881 5880 5879 5878 5877 5875 5874 5873 5873 5872 5871 5870 5869 5869 5868 5867 5866 5866 5865 5865 5865 5865 5865
5856 5859 5862 5865 5868 5871 5874 5876 5879 5881 5882 5883 5884 5884 5885 5885 5884 5884 5884 5883 5883 5882 5881 5880 5879 5878 5878 5877 5875 5874 5873 5871 5870 5869 5868 5868 5867 5866 5865 5864 5863 5862 5861 5861 5860 5860 5859 5859 5860
5852 5856 5859 5862 5866 5868 5871 5874 5876 5878 5879 5880 5880 5881 5882 5881 5881 5881 5880 5880 5879 5878 5877 5876 5876 5875 5873 5872 5871 5870 5868 5867 5866 5865 5864 5863 5862 5861 5860 5859 5858 5857 5856 5855 5855 5855 5854 5854 5854
5849 5853 5857 5860 5863 5866 5869 5872 5874 5875 5876 5877 5877 5878 5878 5878 5878 5877 5877 5876 5875 5874 5873 5872 5871 5870 5869 5868 5866 5865 5864 5863 5861 5860 5859 5858 5856 5855 5854 5853 5852 5851 5850 5849 5849 5848 5848 5848 5848
5848 5852 5855 5858 5861 5863 5867 5869 5870 5872 5873 5873 5874 5874 5874 5874 5874 5874 5873 5872 5871 5871 5870 5868 5867 5866 5864 5863 5862 5861 5859 5858 5856 5854 5853 5852 5851 5849 5848 5847 5846 5845 5844 5843 5843 5842 5842 5842 5842
5846 5850 5853 5856 5858 5861 5865 5866 5867 5868 5869 5869 5870 5871 5871 5871 5871 5870 5869 5869 5868 5867 5865 5864 5863 5861 5860 5858 5857 5856 5854 5853 5851 5849 5848 5846 5845 5843 5842 5841 5839 5838 5838 5837 5837 5836 5836 5836 5836
5844 5848 5851 5854 5855 5858 5861 5863 5864 5865 5866 5866 5867 5867 5868 5868 5867 5867 5866 5865 5864 5862 5861 5860 5858 5856 5855 5853 5852 5850 5849 5848 5846 5844 5842 5840 5839 5837 5835 5834 5832 5832 5831 5831 5830 5830 5830 5829 5829
5842 5845 5848 5851 5853 5855 5858 5860 5861 5862 5863 5863 5864 5864 5864 5864 5863 5862 5862 5861 5859 5857 5856 5855 5853 5852 5850 5848 5847 5845 5843 5842 5840 5838 5836 5834 5832 5830 5828 5827 5825 5825 5824 5824 5823 5823 5823 5823 5823
5840 5843 5846 5849 5851 5853 5855 5856 5857 5858 5859 5860 5861 5860 5860 5860 5859 5858 5857 5856 5854 5853 5851 5850 5848 5847 5845 5843 5841 5839 5837 5835 5833 5831 5829 5827 5825 5823 5821 5819 5818 5817 5817 5817 5816 5816 5816 5816 5816
5838 5842 5845 5847 5848 5850 5851 5853 5854 5855 5856 5857 5857 5857 5856 5856 5855 5854 5852 5851 5848 5847 5846 5844 5843 5841 5839 5837 5835 5833 5831 5829 5827 5824 5821 5819 5817 5815 5813 5811 5810 5809 5809 5809 5809 5808 5808 5809 5809
5836 5840 5843 5845 5846 5847 5848 5850 5851 5852 5853 5853 5853 5853 5853 5852 5851 5850 5848 5846 5844 5842 5841 5839 5837 5835 5833 5831 5829 5827 5824 5822 5819 5817 5814 5812 5809 5807 5805 5803 5802 5801 5801 5801 5801 5801 5801 5801 5802
5835 5838 5840 5842 5843 5844 5846 5847 5849 5849 5850 5850 5850 5849 5848 5848 5847 5845 5843 5841 5839 5837 5835 5833 5831 5829 5827 5825 5822 5820 5817 5815 5812 5809 5807 5804 5802 5799 5798 5796 5795 5794 5794 5794 5793 5793 5793 5794 5794
5833 5835 5837 5839 5840 5841 5842 5844 5846 5846 5846 5846 5846 5845 5844 5843 5841 5840 5838 5836 5834 5832 5830 5827 5825 5823 5821 5818 5816 5813 5810 5807 5804 5802 5799 5797 5794 5792 5791 5789 5788 5787 5786 5786 5786 5786 5786 5786 5787
5830 5833 5834 5836 5837 5839 5840 5841 5842 5842 5843 5843 5842 5840 5839 5838 5836 5835 5833 5831 5829 5826 5824 5821 5819 5817 5814 5812 5809 5806 5803 5800 5797 5794 5792 5789 5787 5785 5784 5782 5781 5779 5779 5778 5778 5778 5779 5779 5780
5828 5831 5832 5833 5834 5836 5837 5837 5839 5839 5839 5838 5837 5836 5835 5834 5832 5829 5827 5825 5823 5821 5817 5815 5813 5811 5808 5806 5803 5800 5796 5793 5790 5787 5785 5783 5780 5778 5777 5775 5774 5772 5771 5771 5771 5771 5771 5772 5772
5826 5828 5830 5830 5831 5832 5833 5833 5836 5835 5834 5833 5832 5831 5830 5828 5826 5824 5822 5820 5817 5815 5812 5809 5807 5804 5802 5799 5796 5793 5790 5786 5783 5781 5778 5776 5774 5771 5770 5768 5767 5766 5765 5764 5764 5764 5764 5765 5765
5823 5824 5826 5827 5828 5828 5829 5830 5831 5830 5829 5828 5827 5826 5825 5822 5820 5818 5816 5814 5812 5809 5806 5804 5801 5799 5796 5793 5789 5786 5783 5780 5777 5775 5772 5769 5767 5765 5763 5762 5760 5759 5758 5757 5757 5757 5757 5758 5759
5820 5821 5823 5823 5823 5824 5825 5825 5826 5826 5825 5824 5822 5821 5819 5817 5814 5812 5810 5808 5806 5804 5801 5798 5796 5793 5790 5786 5783 5780 5777 5775 5772 5769 5766 5763 5761 5759 5757 5755 5754 5752 5751 5751 5750 5751 5751 5751 5752
5817 5818 5819 5820 5820 5820 5820 5823 5822 5821 5820 5818 5817 5815 5814 5811 5809 5806 5804 5802 5800 5798 5796 5793 5790 5787 5784 5781 5778 5774 5772 5769 5766 5763 5760 5758 5755 5753 5751 5749 5748 5746 5745 5744 5744 5744 5744 5745 5746
5813 5814 5815 5816 5816 5816 5816 5820 5817 5816 5814 5813 5812 5810 5809 5806 5804 5801 5799 5797 5795 5793 5790 5788 5785 5782 5779 5775 5772 5769 5766 5763 5760 5757 5755 5752 5750 5747 5745 5743 5741 5740 5738 5738 5737 5738 5738 5738 5739